Location: Ch�tillon
(48.8024°N, 2.2935°E)
Time: 13:32:32
(UTC+00:00)

Oscar 19 - Pass Details

Date: 07 July 2022
Orbit: 773 x 790 km, 98.8° (Epoch: 14 August)

Event Time Altitude Azimuth Distance (km) Brightness Sun altitude
Rises 02:10:37 0° 28° (NNE) 3,262 16.0 -12.5°
Reaches altitude 10° 02:13:43 10° 48° (NE) 2,328 14.4 -12.2°
Maximum altitude 02:17:06 18° 90° (E) 1,852 13.0 -11.9°
Drops below altitude 10° 02:20:28 10° 131° (SE) 2,319 13.0 -11.6°
Sets 02:23:33 0° 151° (SSE) 3,242 13.6 -11.4°
